Location: Haulchin
(50.3172°N, 3.4360°E)
Time: 20:38:50
(UTC+00:00)

Resurs 1-4 Rocket - Pass Details

Date: 23 May 2024
Orbit: 798 x 813 km, 98.7° (Epoch: 16 June)

Event Time Altitude Azimuth Distance (km) Brightness Sun altitude
Rises 00:25:33 0° 28° (NNE) 3,318 6.7 -18.4°
Reaches altitude 10° 00:28:44 10° 48° (NE) 2,381 5.3 -18.3°
Maximum altitude 00:32:09 17° 88° (E) 1,913 4.2 -18.2°
Drops below altitude 10° 00:35:33 10° 129° (SE) 2,371 4.3 -18.1°
Enters shadow 00:36:01 - 133° (SE) 2,489 4.4 -18.1°
